Weather History for Dutch Harbor, AK

Change the Weather History Date:

Saturday, April 13, 2013

  Actual Average Record
Temperature  
Mean Temperature 29 °F -  
Max Temperature 33 °F 42 °F 54 °F (1983)
Min Temperature 26 °F 28 °F 10 °F (1983)
Degree Days  
Heating Degree Days 36    
Moisture  
Dew Point 20 °F    
Average Humidity 72    
Maximum Humidity 78    
Minimum Humidity 64    
Precipitation  
Precipitation 0.00 in - - ()
Sea Level Pressure  
Sea Level Pressure 30.61 in    
Wind  
Wind Speed 6 mph (NNW)    
Max Wind Speed 12 mph    
Max Gust Speed 20 mph    
Visibility 10 miles    
Events      
Averages and records for this station are not official NWS values.
T = Trace of Precipitation, MM = Missing Value Source: NWS Daily Summary

Daily Weather History Graph

Daily Weather History Graph

Search for Another Location

Airport:

Trip Planner

Search our weather history database for the weather conditions in past years. The results will help you decide how hot, cold, wet, or windy it might be!

Date:

Astronomy

Apr. 13, 2013 Rise Set
Actual Time 8:08 AM AKDT 10:05 PM AKDT
Civil Twilight 7:31 AM AKDT 10:43 PM AKDT
Nautical Twilight 6:44 AM AKDT 11:30 PM AKDT
Astronomical Twilight 5:50 AM AKDT 12:24 AM AKDT
Moon 9:44 AM AKDT (4/13) 1:10 AM AKDT (4/13)
Length of Visible Light 15h 11m
Length of Day
13h 56m
Waxing Crescent, 11% of the Moon is Illuminated
Apr 13
Waxing Crescent
Apr 18
First Quarter
Apr 25
Full
May 2
Last Quarter
May 9
New

Hourly Weather History & Observations

Time (AKDT) Temp. Windchill Dew Point Humidity Pressure Visibility Wind Dir Wind Speed Gust Speed Precip Events Conditions
12:56 AM 26.1 °F 19.4 °F 19.0 °F 75% 30.63 in 10.0 mi Variable 5.8 mph - N/A   Overcast
1:56 AM 26.1 °F 20.5 °F 19.0 °F 75% 30.63 in 10.0 mi NNE 4.6 mph - N/A   Overcast
2:56 AM 26.1 °F 17.6 °F 19.0 °F 75% 30.64 in 10.0 mi NNW 8.1 mph - 0.00 in   Overcast
3:56 AM 26.1 °F - 19.0 °F 75% 30.62 in 10.0 mi Calm Calm - N/A   Overcast
4:56 AM 26.1 °F 18.4 °F 18.0 °F 71% 30.61 in 10.0 mi North 6.9 mph - N/A   Overcast
5:56 AM 26.1 °F 15.6 °F 19.0 °F 75% 30.61 in 10.0 mi North 11.5 mph - N/A   Overcast
6:16 AM 26.6 °F 19.1 °F 17.6 °F 69% 30.59 in 10.0 mi North 6.9 mph - N/A   Overcast
6:56 AM 26.1 °F 19.4 °F 18.0 °F 71% 30.61 in 10.0 mi Variable 5.8 mph - N/A   Overcast
7:56 AM 26.1 °F 15.6 °F 19.0 °F 75% 30.61 in 10.0 mi North 11.5 mph 17.3 mph N/A   Overcast
8:43 AM 26.6 °F 19.1 °F 19.4 °F 74% 30.60 in 10.0 mi Variable 6.9 mph - N/A   Overcast
8:56 AM 26.1 °F 21.9 °F 19.0 °F 75% 30.62 in 10.0 mi Variable 3.5 mph - N/A   Overcast
9:56 AM 27.0 °F 20.5 °F 19.0 °F 72% 30.63 in 10.0 mi Variable 5.8 mph - N/A   Overcast
9:58 AM 26.6 °F 16.2 °F 19.4 °F 74% 30.61 in 10.0 mi NNW 11.5 mph 16.1 mph N/A   Overcast
10:56 AM 27.0 °F 18.0 °F 19.0 °F 72% 30.63 in 10.0 mi ENE 9.2 mph 19.6 mph N/A   Overcast
11:38 AM 28.4 °F 24.6 °F 19.4 °F 69% 30.62 in 10.0 mi Variable 3.5 mph - N/A   Overcast
11:56 AM 28.0 °F 22.8 °F 19.0 °F 69% 30.63 in 10.0 mi Variable 4.6 mph - N/A   Overcast
12:56 PM 28.9 °F 21.1 °F 21.0 °F 72% 30.64 in 10.0 mi NNW 8.1 mph - N/A   Overcast
1:56 PM 28.9 °F 22.8 °F 21.0 °F 72% 30.64 in 10.0 mi Variable 5.8 mph - N/A   Overcast
2:56 PM 30.0 °F 24.1 °F 21.9 °F 72% 30.63 in 10.0 mi North 5.8 mph 16.1 mph N/A   Overcast
3:56 PM 30.0 °F 22.4 °F 21.9 °F 72% 30.63 in 10.0 mi North 8.1 mph - N/A   Overcast
4:56 PM 30.9 °F 21.7 °F 21.9 °F 69% 30.63 in 10.0 mi NNW 11.5 mph - N/A   Overcast
5:56 PM 32.0 °F 23.0 °F 23.0 °F 69% 30.60 in 10.0 mi NW 11.5 mph - N/A   Mostly Cloudy
6:21 PM 32.0 °F 25.6 °F 21.2 °F 64% 30.58 in 10.0 mi NNW 6.9 mph - N/A   Scattered Clouds
6:56 PM 32.0 °F 24.8 °F 21.9 °F 66% 30.59 in 10.0 mi NNW 8.1 mph - N/A   Clear
7:56 PM 30.9 °F 24.3 °F 23.0 °F 72% 30.58 in 10.0 mi North 6.9 mph - N/A   Scattered Clouds
8:56 PM 32.0 °F 26.4 °F 24.1 °F 73% 30.57 in 10.0 mi NNW 5.8 mph - N/A   Scattered Clouds
9:56 PM 30.0 °F 26.5 °F 23.0 °F 75% 30.58 in 10.0 mi WNW 3.5 mph - N/A   Clear
10:56 PM 28.9 °F 23.9 °F 21.9 °F 75% 30.59 in 10.0 mi South 4.6 mph - N/A   Clear
11:56 PM 28.0 °F - 21.9 °F 78% 30.59 in 10.0 mi Calm Calm - N/A   Clear